DW6417 Weather Reports


time (UTC)temp
C
wind
direction
speed
KPH
gust
KPH
rain 1hr
cm
rain 24hr
cm
rain mn
cm
humidity
%
barometer
mb
20260502214421 15 0 0.0 1.6 0.00 0.97 0.97 89 1011.7
20260502213921 15 0 0.0 1.6 0.00 0.97 0.97 89 1011.6
20260502213628 15 184 0.0 0.0 0.00 0.97 0.97 89 1011.4
20260502213421 15 0 0.0 1.6 0.00 0.97 0.97 89 1011.5
20260502212921 15 0 0.0 0.0 0.00 0.97 0.97 89 1011.4
20260502212628 15 184 0.0 0.0 0.03 0.97 0.97 89 1011.4
20260502212421 15 0 0.0 0.0 0.03 0.97 0.97 89 1011.4
20260502211921 15 0 0.0 1.6 0.03 0.97 0.97 89 1011.4
20260502211628 15 184 0.0 1.6 0.03 0.97 0.97 89 1011.5
20260502211421 15 0 0.0 4.8 0.03 0.97 0.97 89 1011.5
20260502210921 15 184 1.6 8.0 0.03 0.97 0.97 88 1011.5
20260502210629 15 184 3.2 8.0 0.03 0.97 0.97 88 1011.7
20260502210421 15 184 1.6 8.0 0.03 0.97 0.97 88 1011.7
20260502205422 15 184 1.6 4.8 0.05 0.97 0.97 88 1011.8
20260502204921 15 0 0.0 4.8 0.05 0.97 0.97 88 1011.8
20260502204628 15 184 0.0 1.6 0.05 0.97 0.97 88 1011.7
20260502204421 15 0 0.0 1.6 0.05 0.97 0.97 88 1011.7
20260502203921 15 185 1.6 8.0 0.05 0.97 0.97 88 1011.8
20260502203628 16 184 3.2 8.0 0.05 0.97 0.97 88 1011.6
20260502203422 16 185 1.6 8.0 0.05 0.97 0.97 88 1011.6
20260502202921 16 186 1.6 6.4 0.05 0.97 0.97 87 1011.7
20260502202628 16 185 1.6 6.4 0.05 0.94 0.94 88 1011.8
20260502201921 16 186 3.2 6.4 0.05 0.94 0.94 87 1012.1
20260502201628 16 185 1.6 6.4 0.05 0.94 0.94 87 1012.3
20260502201421 16 186 3.2 6.4 0.05 0.94 0.94 87 1012.1
20260502200921 16 186 1.6 8.0 0.05 0.94 0.94 87 1012.3
20260502200628 16 185 1.6 8.0 0.05 0.94 0.94 86 1012.4
20260502200421 16 186 1.6 8.0 0.05 0.94 0.94 86 1012.4
20260502195921 16 187 3.2 8.0 0.05 0.94 0.94 86 1012.5
20260502195628 16 186 3.2 8.0 0.05 0.91 0.91 86 1012.4
20260502195421 16 189 3.2 8.0 0.05 0.91 0.91 86 1012.4
20260502194921 16 190 1.6 8.0 0.03 0.89 0.89 86 1012.7
20260502194628 16 190 1.6 4.8 0.03 0.89 0.89 85 1012.9
20260502194421 16 191 1.6 8.0 0.03 0.89 0.89 85 1012.9
20260502193921 16 190 1.6 4.8 0.03 0.89 0.89 84 1013.0
20260502192921 16 192 3.2 9.7 0.20 0.89 0.89 84 1013.2
20260502192421 16 192 1.6 6.4 0.36 0.89 0.89 85 1013.4
20260502191628 16 192 0.0 3.2 0.36 0.89 0.89 84 1013.2
20260502190921 16 190 1.6 9.7 0.36 0.89 0.89 83 1013.1
20260502190628 16 192 1.6 9.7 0.36 0.89 0.89 83 1013.0
20260502190421 16 170 3.2 9.7 0.36 0.89 0.89 83 1013.0
20260502185628 16 159 3.2 9.7 0.36 0.89 0.89 82 1012.9
20260502185421 16 159 3.2 9.7 0.36 0.89 0.89 82 1013.0
20260502184921 17 145 3.2 16.1 0.38 0.89 0.89 82 1013.0
20260502184628 17 138 4.8 16.1 0.43 0.89 0.89 81 1012.8
20260502184421 17 140 4.8 16.1 0.43 0.89 0.89 81 1012.9
20260502183921 17 149 4.8 16.1 0.51 0.89 0.89 81 1012.7
20260502183628 18 163 4.8 16.1 0.56 0.89 0.89 83 1012.8
20260502183421 18 170 4.8 16.1 0.56 0.89 0.89 83 1012.8
20260502182921 18 185 3.2 14.5 0.43 0.71 0.71 84 1012.9
20260502182420 18 199 3.2 11.3 0.43 0.51 0.51 85 1012.9
20260502181921 18 254 3.2 8.0 0.51 0.51 0.51 84 1012.7
20260502181421 18 333 3.2 4.8 0.51 0.51 0.51 83 1012.6
20260502180921 19 330 3.2 8.0 0.51 0.51 0.51 83 1012.2
20260502180628 19 338 4.8 8.0 0.51 0.51 0.51 83 1012.1
20260502180421 19 221 3.2 8.0 0.51 0.51 0.51 83 1012.1
20260502170421 23 135 3.2 9.7 0.00 0.00 0.00 60 1011.6
20260502163921 23 198 1.6 8.0 0.00 0.00 0.00 57 1012.2
20260502163628 23 196 3.2 8.0 0.00 0.00 0.00 56 1012.3
20260502162921 23 200 1.6 4.8 0.00 0.00 0.00 55 1012.3
20260502162421 24 201 1.6 4.8 0.00 0.00 0.00 54 1012.4
20260502161921 24 201 1.6 4.8 0.00 0.00 0.00 52 1012.5
20260502161628 24 201 1.6 4.8 0.00 0.00 0.00 49 1012.5
20260502160921 24 200 3.2 6.4 0.00 0.00 0.00 51 1012.6
20260502160628 24 199 3.2 6.4 0.00 0.00 0.00 51 1012.5
20260502160421 24 201 3.2 6.4 0.00 0.00 0.00 51 1012.6
20260502151921 24 185 1.6 8.0 0.00 0.00 0.00 54 1013.1
20260502151629 24 180 1.6 6.4 0.00 0.00 0.00 53 1013.1
20260502151422 24 197 1.6 6.4 0.00 0.00 0.00 53 1013.1
20260502150628 24 201 1.6 6.4 0.00 0.00 0.00 54 1013.4
20260502150421 24 201 1.6 6.4 0.00 0.00 0.00 54 1013.4
20260502130628 26 252 8.0 17.7 0.00 0.00 0.00 47 1014.7
20260502130421 26 264 6.4 19.3 0.00 0.00 0.00 47 1014.7
20260502123628 26 221 6.4 14.5 0.00 0.00 0.00 47 1015.2
20260502123422 26 203 6.4 14.5 0.00 0.00 0.00 47 1015.2
20260502122921 26 204 8.0 16.1 0.00 0.00 0.00 46 1015.3
20260502122422 26 204 6.4 16.1 0.00 0.00 0.00 46 1015.2
20260502121921 26 244 8.0 24.1 0.00 0.00 0.00 48 1015.3
20260502121629 26 301 9.7 24.1 0.00 0.00 0.00 46 1015.4
20260502121421 26 239 9.7 24.1 0.00 0.00 0.00 46 1015.4
20260502120921 26 202 8.0 16.1 0.00 0.00 0.00 47 1015.3
20260502120628 26 124 6.4 14.5 0.00 0.00 0.00 47 1015.3
20260502120422 26 195 6.4 16.1 0.00 0.00 0.00 47 1015.4
20260502115628 26 195 4.8 11.3 0.00 0.00 0.00 48 1015.6
20260502114921 26 203 6.4 17.7 0.00 0.00 0.00 48 1015.7
20260502114628 25 236 6.4 17.7 0.00 0.00 0.00 49 1015.7
20260502114421 25 184 6.4 17.7 0.00 0.00 0.00 49 1015.7
20260502113922 25 186 6.4 14.5 0.00 0.00 0.00 49 1015.8
20260502113628 25 178 4.8 14.5 0.00 0.00 0.00 50 1015.9
20260502113421 25 209 4.8 14.5 0.00 0.00 0.00 50 1015.9
20260502112921 25 221 4.8 12.9 0.00 0.00 0.00 50 1015.9
20260502112630 25 225 4.8 12.9 0.00 0.00 0.00 51 1015.9
20260502112421 25 234 6.4 14.5 0.00 0.00 0.00 51 1015.9
20260502111921 25 210 8.0 20.9 0.00 0.00 0.00 51 1015.9
20260502111421 24 213 8.0 20.9 0.00 0.00 0.00 50 1015.9
20260502110921 24 218 8.0 16.1 0.00 0.00 0.00 50 1016.0
20260502110628 24 215 8.0 16.1 0.00 0.00 0.00 50 1016.1
20260502110421 24 208 9.7 24.1 0.00 0.00 0.00 50 1016.1
20260502105921 24 230 9.7 24.1 0.00 0.00 0.00 49 1016.2
20260502105628 24 263 8.0 20.9 0.00 0.00 0.00 50 1016.2
20260502105421 24 234 6.4 20.9 0.00 0.00 0.00 50 1016.2
20260502104922 24 238 8.0 19.3 0.00 0.00 0.00 49 1016.5
20260502104628 24 210 8.0 19.3 0.00 0.00 0.00 51 1016.4
20260502104421 24 237 6.4 19.3 0.00 0.00 0.00 51 1016.4
20260502103921 23 234 6.4 16.1 0.00 0.00 0.00 49 1016.4
20260502103628 23 253 6.4 16.1 0.00 0.00 0.00 50 1016.4
20260502103421 23 225 6.4 16.1 0.00 0.00 0.00 50 1016.4
20260502102921 23 206 6.4 14.5 0.00 0.00 0.00 49 1016.5
20260502102628 23 211 4.8 14.5 0.00 0.00 0.00 50 1016.6
20260502102421 23 222 6.4 17.7 0.00 0.00 0.00 50 1016.5
20260502101628 23 248 6.4 11.3 0.00 0.00 0.00 50 1016.8
20260502100922 23 246 4.8 11.3 0.00 0.00 0.00 50 1016.8
20260502100628 23 249 4.8 9.7 0.00 0.00 0.00 53 1016.8
20260502090921 21 178 4.8 11.3 0.00 0.00 0.00 53 1017.1
20260502071421 17 173 3.2 9.7 0.00 0.00 0.00 54 1017.4
20260502070922 16 164 1.6 4.8 0.00 0.00 0.00 56 1017.5
20260502070628 16 164 1.6 4.8 0.00 0.00 0.00 58 1017.4
20260502065922 16 163 1.6 6.4 0.00 0.00 0.00 59 1017.4
20260502065628 15 163 3.2 6.4 0.00 0.00 0.00 60 1017.4
20260502065421 15 163 1.6 6.4 0.00 0.00 0.00 60 1017.5
20260502064923 15 162 1.6 4.8 0.00 0.00 0.00 60 1017.5
20260502064628 15 163 0.0 3.2 0.00 0.00 0.00 61 1017.4
20260502064421 15 163 1.6 3.2 0.00 0.00 0.00 61 1017.4
20260502063422 14 163 1.6 4.8 0.00 0.00 0.00 64 1017.4
20260502062628 13 163 0.0 1.6 0.00 0.00 0.00 64 1017.3
20260502062422 13 163 1.6 4.8 0.00 0.00 0.00 64 1017.3
20260502061921 13 163 1.6 4.8 0.00 0.00 0.00 65 1017.4
20260502061422 13 162 1.6 4.8 0.00 0.00 0.00 66 1017.5
20260502060922 13 162 1.6 4.8 0.00 0.00 0.00 67 1017.4
20260502060628 12 163 1.6 4.8 0.00 0.00 0.00 68 1017.4
20260502060422 12 163 1.6 4.8 0.00 0.00 0.00 68 1017.5
20260502055923 12 163 1.6 4.8 0.00 0.00 0.00 68 1017.4
20260502055421 12 0 0.0 3.2 0.00 0.00 0.00 70 1017.2
20260502054422 10 0 0.0 1.6 0.00 0.00 0.00 73 1017.0
20260502053923 10 0 0.0 3.2 0.00 0.00 0.00 74 1017.1
20260502053628 9 163 1.6 3.2 0.00 0.00 0.00 76 1017.2
20260502053422 9 0 0.0 3.2 0.00 0.00 0.00 76 1017.2
20260502052922 9 0 0.0 1.6 0.00 0.00 0.00 75 1017.3
20260502052424 8 0 0.0 1.6 0.00 0.00 0.00 76 1017.2
20260502051922 8 0 0.0 0.0 0.00 0.00 0.00 76 1017.2
20260502051628 8 163 0.0 0.0 0.00 0.00 0.00 77 1017.2
20260502051423 8 0 0.0 1.6 0.00 0.00 0.00 77 1017.2
20260502050628 7 163 0.0 1.6 0.00 0.00 0.00 80 1017.0
20260502045922 7 0 0.0 0.0 0.00 0.00 0.00 79 1017.1
20260502045628 7 163 0.0 0.0 0.00 0.00 0.00 79 1017.2
20260502044628 7 163 0.0 1.6 0.00 0.00 0.00 79 1017.2
20260502044422 7 0 0.0 1.6 0.00 0.00 0.00 79 1017.2
20260502043922 6 0 0.0 1.6 0.00 0.00 0.00 79 1017.2
20260502043628 6 163 0.0 0.0 0.00 0.00 0.00 79 1017.2
20260502043421 6 0 0.0 0.0 0.00 0.00 0.00 79 1017.3
20260502042922 6 0 0.0 1.6 0.00 0.00 0.00 79 1017.3
20260502042629 6 163 0.0 1.6 0.00 0.00 0.00 79 1017.2
20260502042422 6 0 0.0 1.6 0.00 0.00 0.00 79 1017.3
20260502041921 6 0 0.0 0.0 0.00 0.00 0.00 79 1017.3
20260502041628 6 163 0.0 0.0 0.00 0.00 0.00 79 1017.4
20260502041422 6 0 0.0 0.0 0.00 0.00 0.00 79 1017.4
20260502040921 6 0 0.0 0.0 0.00 0.00 0.00 79 1017.4
20260502040628 6 163 0.0 0.0 0.00 0.00 0.00 78 1017.4
20260502040422 6 0 0.0 0.0 0.00 0.00 0.00 78 1017.4
20260502035628 6 163 0.0 0.0 0.00 0.00 0.00 78 1017.4
20260502035422 6 0 0.0 0.0 0.00 0.00 0.00 78 1017.4
20260502034922 6 0 0.0 0.0 0.00 0.00 0.00 78 1017.4
20260502034628 6 163 0.0 0.0 0.00 0.00 0.00 78 1017.4
20260502034422 6 0 0.0 0.0 0.00 0.00 0.00 78 1017.5
20260502033922 6 0 0.0 0.0 0.00 0.00 0.00 78 1017.4
20260502033422 6 0 0.0 0.0 0.00 0.00 0.00 78 1017.5
20260502032629 6 163 0.0 0.0 0.00 0.00 0.00 78 1017.4
20260502032422 6 0 0.0 1.6 0.00 0.00 0.00 78 1017.4
20260502031922 6 0 0.0 1.6 0.00 0.00 0.00 78 1017.5
20260502031628 6 163 0.0 1.6 0.00 0.00 0.00 78 1017.5
20260502031422 6 0 0.0 1.6 0.00 0.00 0.00 78 1017.6
20260502030922 7 0 0.0 0.0 0.00 0.00 0.00 78 1017.5
20260502030629 7 163 0.0 0.0 0.00 0.00 0.00 78 1017.6
20260502030422 7 0 0.0 0.0 0.00 0.00 0.00 78 1017.5
20260502025921 7 0 0.0 0.0 0.00 0.00 0.00 78 1017.6
20260502025628 7 163 0.0 0.0 0.00 0.00 0.00 78 1017.5
20260502025422 7 0 0.0 3.2 0.00 0.00 0.00 78 1017.6
20260502024921 7 0 0.0 3.2 0.00 0.00 0.00 78 1017.6
20260502024628 7 163 0.0 3.2 0.00 0.00 0.00 77 1017.6
20260502024421 7 0 0.0 3.2 0.00 0.00 0.00 77 1017.7
20260502023922 7 0 0.0 0.0 0.00 0.00 0.00 77 1017.7
20260502023628 7 163 0.0 0.0 0.00 0.00 0.00 77 1017.8
20260502023422 7 0 0.0 0.0 0.00 0.00 0.00 77 1017.8
20260502022922 7 163 1.6 3.2 0.00 0.00 0.00 77 1017.8
20260502022629 7 163 1.6 3.2 0.00 0.00 0.00 76 1017.9
20260502021922 7 0 0.0 3.2 0.00 0.00 0.00 77 1017.8
20260502021629 7 163 0.0 0.0 0.00 0.00 0.00 76 1017.9
20260502021422 7 0 0.0 0.0 0.00 0.00 0.00 76 1017.8
20260502020922 7 0 0.0 0.0 0.00 0.00 0.00 76 1017.9
20260502020629 7 163 0.0 0.0 0.00 0.00 0.00 76 1017.9
20260502020421 7 0 0.0 0.0 0.00 0.00 0.00 76 1017.9
20260502015422 7 0 0.0 0.0 0.00 0.00 0.00 75 1018.0
20260502014922 7 0 0.0 0.0 0.00 0.00 0.00 75 1018.0
20260502014628 7 163 0.0 0.0 0.00 0.00 0.00 75 1018.0
20260502014422 7 0 0.0 0.0 0.00 0.00 0.00 75 1018.0
20260502013922 8 0 0.0 0.0 0.00 0.00 0.00 75 1018.1
20260502013629 8 163 0.0 0.0 0.00 0.00 0.00 74 1018.1
20260502013422 8 0 0.0 0.0 0.00 0.00 0.00 74 1018.1
20260502012922 8 0 0.0 0.0 0.00 0.00 0.00 74 1018.1
20260502012629 8 163 0.0 0.0 0.00 0.00 0.00 74 1018.1
20260502012422 8 0 0.0 0.0 0.00 0.00 0.00 74 1018.1
20260502011922 8 0 0.0 0.0 0.00 0.00 0.00 74 1018.1
20260502011629 8 163 0.0 0.0 0.00 0.00 0.00 73 1018.1
20260502011422 8 0 0.0 0.0 0.00 0.00 0.00 73 1018.1
20260502010922 8 0 0.0 0.0 0.00 0.00 0.00 73 1018.2
20260502010629 8 163 0.0 0.0 0.00 0.00 0.00 73 1018.2
20260502010422 8 0 0.0 0.0 0.00 0.00 0.00 73 1018.2
20260502005922 8 0 0.0 0.0 0.00 0.00 0.00 73 1018.2
20260502005628 8 163 0.0 0.0 0.00 0.00 0.00 72 1018.3
20260502005422 8 0 0.0 0.0 0.00 0.00 0.00 72 1018.3
20260502004922 8 0 0.0 0.0 0.00 0.00 0.00 72 1018.3
20260502004629 8 163 0.0 0.0 0.00 0.00 0.00 71 1018.4
20260502004422 8 0 0.0 0.0 0.00 0.00 0.00 71 1018.4
20260502003629 9 163 0.0 0.0 0.00 0.00 0.00 71 1018.4
20260502003422 9 0 0.0 0.0 0.00 0.00 0.00 71 1018.4
20260502002922 9 0 0.0 1.6 0.00 0.00 0.00 70 1018.4
20260502002629 9 163 0.0 1.6 0.00 0.00 0.00 70 1018.6
20260502002422 9 0 0.0 1.6 0.00 0.00 0.00 70 1018.5
20260502001922 9 0 0.0 0.0 0.00 0.00 0.00 70 1018.6
20260502001628 9 163 0.0 0.0 0.00 0.00 0.00 70 1018.7
20260502001422 9 0 0.0 0.0 0.00 0.00 0.00 70 1018.7
20260502000922 10 0 0.0 0.0 0.00 0.00 0.00 70 1018.6
20260502000424 10 0 0.0 0.0 0.00 0.00 0.00 69 1018.8
20260501235922 10 0 0.0 0.0 0.00 0.00 0.00 69 1018.9
20260501235629 10 163 0.0 0.0 0.00 0.00 0.00 68 1018.9
20260501235422 10 0 0.0 0.0 0.00 0.00 0.00 68 1018.9
20260501234922 10 0 0.0 0.0 0.00 0.00 0.00 67 1019.0
20260501234628 10 163 0.0 0.0 0.00 0.00 0.00 66 1019.0
20260501233922 10 0 0.0 0.0 0.00 0.00 0.00 66 1019.1
20260501233629 10 163 0.0 0.0 0.00 0.00 0.00 65 1019.1
20260501233422 10 0 0.0 0.0 0.00 0.00 0.00 65 1019.1
20260501232629 11 163 0.0 0.0 0.00 0.00 0.00 64 1019.1
20260501232422 11 0 0.0 0.0 0.00 0.00 0.00 64 1019.2
20260501231922 11 0 0.0 0.0 0.00 0.00 0.00 64 1019.2
20260501231629 11 163 0.0 0.0 0.00 0.00 0.00 64 1019.2
20260501231423 11 0 0.0 0.0 0.00 0.00 0.00 64 1019.2
20260501230922 11 0 0.0 0.0 0.00 0.00 0.00 63 1019.3
20260501230423 11 0 0.0 0.0 0.00 0.00 0.00 62 1019.2
20260501225422 12 0 0.0 0.0 0.00 0.00 0.00 62 1019.3
20260501224923 12 0 0.0 0.0 0.00 0.00 0.00 62 1019.2
20260501224629 12 163 0.0 0.0 0.00 0.00 0.00 62 1019.2
20260501224422 12 0 0.0 0.0 0.00 0.00 0.00 62 1019.3
20260501223922 12 0 0.0 0.0 0.00 0.00 0.00 61 1019.3
20260501223422 13 0 0.0 1.6 0.00 0.00 0.00 60 1019.2
20260501222922 13 0 0.0 3.2 0.00 0.00 0.00 59 1019.3
20260501222629 13 163 0.0 3.2 0.00 0.00 0.00 57 1019.2
20260501222422 13 0 0.0 3.2 0.00 0.00 0.00 57 1019.3
20260501221629 14 163 0.0 1.6 0.00 0.00 0.00 52 1019.2
20260501221422 14 0 0.0 1.6 0.00 0.00 0.00 54 1019.2
20260501220922 14 0 0.0 1.6 0.00 0.00 0.00 52 1019.2
20260501220629 14 163 0.0 0.0 0.00 0.00 0.00 50 1019.3
20260501220422 14 0 0.0 1.6 0.00 0.00 0.00 50 1019.3
20260501215630 15 163 0.0 3.2 0.00 0.00 0.00 49 1019.3
20260501215422 15 163 1.6 3.2 0.00 0.00 0.00 49 1019.3
20260501214922 15 162 1.6 4.8 0.00 0.00 0.00 48 1019.3
20260501214629 15 163 1.6 4.8 0.00 0.00 0.00 47 1019.3